Tracking 33404 objects as of 6-Mar-2026
HD Live streaming from Space Station
objects crossing your sky now

STARLINK-35497

Track STARLINK-35497 now!
10-day predictions
STARLINK-35497 is classified as:


NORAD ID: 66241
Int'l Code: 2025-245H
Perigee: 481.3 km
Apogee: 483.3 km
Inclination: 53.2 °
Period: 94.1 minutes
Semi major axis: 6853 km
RCS: Unknown
Launch date: October 29, 2025
Source: United States (US)
Launch site: AIR FORCE EASTERN TEST RANGE (AFETR)
Your satellite tracking list
Your tracking list is empty




NASA's NSSDC Master Catalog

Two Line Element Set (TLE):
1 66241U 25245H   26065.38188737  .00030364  00000-0  10327-2 0  9992
2 66241  53.1591 299.0115 0001502  65.5485 294.5672 15.30214081 20702
Source of the keplerian elements: AFSPC